Temp
15 15 16 16 17 17 17 18 18 18 19 19 19 19 19 19 19 19 19 19 19 19 20 20 20 21 21 21 20 20 20 21 21 19 18 16 16 17 18 19 20 20 21 22 22 23 22 22 22 21 23 22 19 19 18 17 16 20 22 22 21 20 20 20 19 18 18 20 18 15 15 17 18 16 15 13 15 15 15 15 15 14 13 14 15 16 16 17
15 15 16 17 17 17 17 18 18 18 19 19 19 19 19 19 19 19 19 19 19 19 20 20 20 21 21 21 20 20 20 21 21 18 17 17 17 17 18 19 20 21 21 21 22 22 23 22 20 21 23 21 18 19 20 17 17 21 20 21 22 21 19 17 17 17 16 18 17 15 14 15 17 16 15 16 17 15 16 17 15 16 16 16 15 15 16 16
15 15 16 16 17 17 18 18 18 19 19 19 19 19 19 19 19 19 19 19 20 19 20 20 20 20 21 20 20 20 20 21 21 18 17 17 17 18 19 20 20 21 21 21 22 22 22 22 20 21 23 22 18 19 22 19 18 19 19 23 22 19 17 14 14 15 14 15 16 16 13 14 15 14 15 16 17 16 17 18 17 18 19 18 15 13 15 15
15 15 16 16 17 17 18 18 18 19 19 19 19 19 19 19 19 19 19 19 20 20 20 19 19 20 20 20 20 20 19 22 21 17 18 18 18 19 20 20 20 20 21 21 21 21 22 21 20 21 23 22 18 18 21 18 18 18 19 23 20 15 17 15 14 14 13 13 15 16 14 15 15 13 15 15 17 19 18 17 18 19 19 19 16 12 13 13
15 15 16 16 17 17 18 18 18 18 19 19 19 19 19 19 19 19 19 19 20 20 20 19 20 20 20 20 20 19 20 22 20 17 18 18 18 19 20 20 20 20 21 21 21 21 22 20 19 21 22 22 20 20 20 15 16 19 17 17 15 13 17 16 13 13 12 12 14 15 15 16 14 14 15 15 17 20 19 18 18 19 18 18 16 12 11 11
15 15 16 17 17 18 18 18 18 19 19 19 19 19 19 19 19 19 19 19 19 20 20 20 20 20 20 20 20 20 21 22 18 17 18 18 18 19 20 20 20 21 20 21 20 21 22 20 21 22 21 20 20 20 19 14 14 20 17 12 12 13 16 15 13 13 12 13 15 15 16 14 15 16 14 14 17 18 18 17 17 16 13 13 13 11 13 13
15 16 17 17 17 18 18 18 19 19 19 19 19 19 19 19 19 19 19 19 19 20 20 20 20 20 20 20 20 20 21 20 17 17 18 18 18 19 20 20 20 21 20 20 20 21 22 22 22 20 20 20 18 18 17 14 15 20 19 14 13 13 14 14 12 13 12 15 16 14 15 14 17 17 13 14 16 16 16 14 11 11 9 9 12 12 12 12
16 16 17 17 18 18 18 19 18 19 19 19 19 19 19 19 19 19 19 19 19 20 21 21 21 20 21 21 21 21 20 18 17 18 18 18 18 19 20 20 20 20 20 20 20 21 21 22 21 19 20 20 17 18 15 16 18 19 18 14 13 13 14 13 12 13 13 15 14 13 16 16 16 14 13 17 17 15 14 11 10 10 10 11 15 16 13 11
16 16 17 17 17 18 18 18 18 19 19 19 19 19 19 18 19 19 19 19 20 21 21 21 21 20 21 20 19 21 20 17 17 17 18 18 18 18 20 19 20 20 20 20 19 20 21 21 21 19 21 18 17 18 15 18 20 17 16 14 14 14 13 13 13 14 14 14 13 15 17 16 13 12 16 19 17 14 12 12 12 12 14 15 17 16 14 13
17 17 17 17 17 18 18 18 18 18 18 18 18 18 18 18 19 19 19 20 20 21 21 21 21 20 21 20 19 21 19 17 17 17 18 19 18 19 19 19 19 19 19 19 18 19 20 21 18 17 20 17 16 17 14 18 18 14 14 14 14 14 13 14 15 15 14 14 14 16 17 16 13 14 20 19 14 13 14 15 13 13 15 15 16 15 10 10
17 17 17 17 18 18 18 18 18 18 18 18 18 18 18 19 19 19 19 20 19 20 20 20 21 20 21 20 21 21 17 17 18 18 18 19 19 19 19 19 19 20 19 18 17 17 19 18 15 16 20 19 17 16 14 15 15 13 15 16 15 14 14 14 15 15 14 15 14 14 16 15 13 15 20 18 13 13 15 16 14 14 15 14 15 14 10 9
17 17 18 18 18 18 18 18 18 18 18 17 18 18 19 19 19 19 19 20 20 19 20 20 20 21 21 19 19 18 17 17 18 18 18 19 19 18 18 18 19 20 20 18 17 17 18 18 17 19 19 18 18 17 15 13 13 14 15 18 17 15 16 15 15 14 14 16 13 13 17 17 15 17 19 16 13 14 15 17 16 15 15 14 14 14 12 10
17 18 18 18 18 18 18 18 18 18 18 18 18 19 19 19 19 20 20 20 20 19 20 20 20 21 22 20 17 17 17 17 18 18 19 19 19 18 18 18 18 19 20 19 18 17 18 19 19 19 16 17 18 16 16 14 13 15 15 18 18 18 18 15 14 14 15 16 12 14 20 22 20 19 18 14 12 15 17 18 18 16 15 14 14 14 14 11
17 18 18 18 18 18 18 18 18 18 18 18 18 19 19 19 19 20 20 20 20 20 20 20 21 21 21 19 17 17 17 17 18 18 19 19 19 19 18 18 18 19 19 20 19 18 18 18 18 16 14 15 16 15 16 15 15 17 17 17 18 20 20 15 13 15 17 15 13 16 20 22 22 20 17 12 11 15 19 19 18 18 17 15 15 15 16 13
17 18 18 17 17 18 18 18 18 18 18 18 18 19 19 20 20 20 20 20 20 20 20 20 21 21 20 18 18 18 18 18 18 18 18 19 19 19 18 18 18 19 19 19 19 18 18 19 19 17 15 14 15 18 18 17 17 17 19 20 18 19 20 16 13 13 16 15 14 17 20 21 21 20 16 12 12 15 18 19 18 18 17 17 16 15 16 15
17 17 17 17 17 18 18 18 18 18 18 18 18 19 19 20 20 20 20 20 20 20 20 20 20 20 20 19 18 18 18 17 17 17 17 18 18 18 18 18 18 18 18 18 18 18 18 19 16 14 16 16 17 20 20 20 20 18 19 22 19 19 21 18 15 12 13 15 15 17 19 21 20 19 16 13 13 15 16 18 18 18 18 17 17 15 16 16
17 17 17 17 18 18 18 18 18 18 18 18 19 19 19 19 20 20 20 20 20 20 20 20 19 19 20 18 18 18 16 16 17 17 17 17 17 17 18 18 17 17 17 18 19 18 17 17 14 13 16 15 15 19 21 21 21 19 19 20 18 18 19 20 18 13 12 15 16 16 17 19 20 18 17 15 14 14 15 17 18 17 17 17 16 16 15 16
17 17 17 17 17 18 18 18 18 18 19 19 19 19 19 19 19 19 20 20 20 20 20 20 19 20 20 18 18 17 15 16 17 16 17 17 17 17 17 17 16 16 18 18 18 18 17 16 15 18 18 16 16 19 22 21 20 21 20 20 19 17 18 19 19 15 13 15 16 16 16 17 18 16 16 15 13 14 14 14 15 15 15 15 15 16 16 16
17 17 17 17 17 18 18 18 18 19 19 19 19 19 19 19 19 20 19 19 20 20 20 18 18 19 19 17 16 15 15 15 16 17 17 17 17 17 16 16 16 17 20 20 19 17 16 18 19 20 20 18 16 16 18 18 17 19 18 19 20 19 19 18 16 13 12 15 16 16 16 16 16 15 15 15 12 13 13 13 14 14 14 14 14 15 15 17
17 17 17 17 18 18 18 18 19 19 19 19 20 19 19 19 20 20 18 17 16 16 16 16 15 16 17 16 15 16 16 16 16 16 16 16 16 17 16 16 17 19 19 19 19 15 14 20 20 18 17 14 11 11 12 13 13 15 17 18 18 18 20 17 14 12 11 15 16 13 14 15 15 16 15 14 12 13 15 14 15 15 15 15 15 16 16 17
18 18 18 18 18 18 18 19 19 19 20 19 20 19 19 19 20 20 18 16 13 11 13 14 12 14 15 14 14 14 16 17 16 15 16 16 15 18 18 17 20 21 16 13 16 14 15 21 18 13 12 10 10 9 10 11 12 15 17 18 18 17 18 16 13 12 11 15 16 12 14 17 16 16 15 14 14 16 16 16 17 17 17 16 16 16 16 15
18 18 19 19 19 19 19 19 19 20 20 19 20 19 18 18 19 19 18 18 16 11 12 12 12 15 14 14 13 13 15 18 17 16 15 15 16 18 19 18 20 20 14 13 17 18 19 19 14 10 9 9 9 8 10 12 13 15 16 18 19 17 16 15 13 12 11 15 17 13 15 18 16 15 16 16 17 17 15 14 16 16 17 17 16 17 16 16
19 19 19 19 19 19 19 19 20 19 20 19 20 19 18 17 17 18 18 20 18 14 14 15 15 17 16 15 14 14 17 17 18 17 15 15 17 16 18 19 19 17 16 17 20 21 21 16 10 8 8 9 11 9 11 14 14 15 16 18 19 16 16 18 15 12 11 12 14 14 14 16 17 17 19 18 15 15 14 13 13 13 15 17 15 14 15 17
20 19 20 20 19 19 19 19 19 19 19 19 20 19 18 18 17 18 18 18 18 16 15 14 14 16 16 15 14 15 17 15 16 17 14 15 16 15 16 17 17 18 16 15 18 20 17 12 8 8 9 11 13 12 12 17 17 14 14 16 17 15 15 17 15 12 12 12 11 14 17 18 19 20 21 18 14 15 15 15 15 14 13 13 13 13 13 16
19 20 20 19 19 19 19 19 19 19 19 19 19 19 18 19 18 19 19 18 19 18 15 14 14 15 15 15 15 15 16 15 15 15 13 13 15 15 15 13 15 19 14 12 17 18 13 8 7 10 11 11 14 15 14 16 18 16 13 13 14 14 13 13 13 14 17 17 12 13 20 21 20 21 22 19 18 19 17 17 19 17 14 14 15 16 15 14
19 19 19 19 19 19 18 19 19 18 19 18 18 18 18 19 18 19 20 19 20 19 17 17 16 16 16 15 14 14 16 17 15 13 12 13 13 15 16 13 14 16 13 12 15 15 12 8 7 11 12 13 15 16 12 12 18 19 13 10 10 11 12 13 14 16 20 20 13 11 19 21 20 22 21 18 19 20 19 19 19 18 17 16 17 18 16 16
19 19 19 19 19 19 19 19 19 19 19 18 17 18 18 19 18 19 19 20 20 18 18 17 16 17 16 14 13 15 19 18 15 14 13 13 13 14 18 17 15 15 11 13 16 14 11 10 10 11 13 14 16 16 12 10 18 18 11 9 10 11 12 12 13 16 17 16 14 12 16 19 20 22 20 16 19 21 20 20 20 18 18 18 18 18 17 17
19 19 19 19 19 19 19 19 19 18 19 18 17 18 19 18 18 19 20 20 19 17 18 17 16 16 15 13 13 16 17 15 17 17 13 13 14 15 18 16 15 15 10 15 20 14 10 12 13 12 14 16 15 14 10 10 15 14 8 8 10 10 11 10 12 15 13 15 19 15 14 19 21 20 18 17 19 21 21 21 20 19 18 18 18 17 16 16
19 19 19 19 19 19 18 19 19 18 18 18 18 19 19 18 18 19 20 20 18 17 17 17 16 16 15 15 15 15 15 15 17 16 13 14 14 15 17 13 12 14 11 14 19 13 9 11 10 11 15 15 12 9 7 10 13 10 7 8 9 9 9 10 12 15 14 17 21 16 14 18 21 21 19 19 20 21 21 21 19 18 18 17 17 17 16 16
19 19 19 19 19 19 19 19 18 19 18 18 18 18 18 19 19 20 20 19 19 17 17 17 17 16 15 17 17 15 16 16 14 14 14 15 15 14 13 11 13 16 14 13 14 11 9 8 8 10 12 11 9 7 6 8 9 8 8 10 10 10 10 11 12 14 17 20 19 14 13 17 20 21 20 20 20 21 21 20 19 18 18 17 17 16 16 16
18 19 19 19 19 18 19 18 18 18 18 18 18 18 19 20 19 20 20 18 18 18 17 17 16 15 16 18 18 16 16 16 14 15 18 16 16 16 14 15 17 17 18 17 14 11 10 10 10 9 8 8 9 8 7 6 7 8 11 13 15 15 14 15 15 16 19 21 17 13 12 15 19 21 21 21 20 19 20 21 20 19 18 17 17 16 15 15
18 18 18 18 18 18 19 18 18 17 17 18 17 18 20 20 19 20 19 18 19 18 17 16 15 15 15 16 17 15 15 16 14 14 16 15 16 16 15 17 18 18 20 19 17 15 14 12 10 8 8 7 10 12 10 8 8 10 13 16 19 20 19 19 19 18 20 20 15 13 13 16 19 21 21 22 21 19 18 20 20 19 19 18 16 15 14 14
17 17 18 18 18 18 18 17 17 17 17 17 17 19 20 20 20 19 18 19 19 16 15 15 13 13 15 17 17 14 14 16 14 13 13 13 16 15 12 11 13 17 20 17 18 19 17 13 10 11 11 7 10 15 16 14 13 13 15 18 20 20 20 20 19 17 18 19 15 12 15 18 20 21 20 20 20 17 15 16 17 18 18 18 16 15 14 13
16 16 17 17 17 17 17 16 16 17 17 17 19 20 20 20 20 17 18 19 16 13 13 13 13 14 16 17 15 13 15 16 13 14 15 15 18 18 15 12 11 15 18 17 18 19 19 18 14 13 12 9 9 12 14 14 14 12 12 15 18 19 20 20 20 19 19 18 16 14 16 20 21 20 18 17 16 14 14 14 14 15 15 15 14 14 14 14
16 16 16 16 16 16 16 16 16 16 17 18 20 20 20 20 20 18 19 18 14 14 13 11 14 18 17 16 14 11 15 17 13 15 17 17 19 19 18 16 12 14 18 19 18 16 19 19 13 9 9 9 10 10 8 12 15 12 10 14 18 17 18 17 15 15 16 16 18 17 18 19 19 18 16 15 16 15 15 15 15 16 15 14 15 15 14 14
16 16 17 16 15 15 16 16 16 16 17 18 20 20 20 20 19 18 17 15 15 16 16 15 16 19 19 17 16 13 13 15 15 16 17 16 17 16 16 15 12 13 16 19 19 17 19 19 11 9 9 8 9 9 8 12 15 13 13 16 15 11 15 17 13 11 12 16 19 17 19 19 18 19 17 16 18 18 16 17 17 17 15 15 16 16 14 14
17 16 16 15 15 16 16 16 16 16 17 19 21 20 18 17 15 14 13 12 13 14 17 19 18 18 19 19 18 16 14 15 15 17 18 16 17 16 15 14 11 11 12 14 18 18 18 19 12 10 12 9 6 8 8 8 11 14 16 15 12 10 13 16 17 16 15 18 19 17 18 20 20 20 18 17 19 19 18 18 17 16 15 16 16 15 14 13
16 16 16 15 15 15 16 16 16 17 18 19 20 18 16 15 12 10 10 10 12 14 17 20 18 16 18 19 18 16 15 17 17 17 18 18 17 16 16 15 11 9 8 10 16 17 16 19 15 9 11 10 6 9 12 9 8 12 13 11 12 16 17 16 18 19 18 18 19 18 17 17 19 20 20 19 19 19 19 18 17 17 16 17 16 15 14 13
16 17 17 15 15 15 16 16 15 16 19 19 21 19 14 14 11 7 8 9 12 16 18 18 16 15 16 17 18 16 15 17 17 17 18 18 17 15 14 14 12 9 7 9 15 16 14 19 18 10 9 10 9 12 16 14 10 9 10 10 12 15 16 16 16 17 19 18 18 19 18 19 20 19 21 22 19 19 19 18 17 18 17 17 16 15 13 13
15 18 18 15 15 16 15 16 16 18 20 17 18 17 12 12 11 6 6 8 11 14 16 17 16 16 16 14 15 15 14 15 16 17 18 17 17 16 12 12 13 11 8 8 12 14 14 18 19 14 10 12 14 14 15 16 14 12 13 13 13 13 14 15 14 13 16 18 18 18 19 21 21 18 20 22 19 17 18 18 18 18 18 16 15 14 14 13
14 18 18 14 15 16 15 18 17 15 18 16 14 14 11 10 10 8 6 7 9 11 12 14 15 16 17 15 15 14 14 15 15 16 18 16 17 18 12 9 12 11 10 12 13 14 15 17 18 16 14 16 16 10 8 11 11 12 15 15 15 15 15 17 17 13 12 15 17 16 18 21 20 16 17 19 18 16 16 17 18 18 18 16 14 13 13 13
16 19 17 14 16 16 17 19 12 7 14 17 12 11 9 8 9 9 8 7 9 10 9 11 13 14 15 16 15 14 14 16 15 15 18 16 16 16 10 5 7 9 12 15 14 12 13 15 17 18 16 14 11 6 5 6 7 8 11 11 13 14 16 19 19 15 13 12 13 13 16 20 19 13 14 16 14 14 14 14 17 17 17 17 14 13 13 12
18 19 16 15 16 16 18 19 12 10 14 11 6 7 7 7 9 9 9 9 11 11 11 12 13 13 14 13 13 14 15 16 16 16 17 16 14 11 6 4 6 9 11 15 14 11 12 15 18 19 16 11 7 5 4 4 6 10 10 9 11 14 15 16 16 15 15 13 13 14 16 20 19 12 12 13 11 12 12 12 14 17 17 16 14 13 13 11
16 15 15 15 16 16 18 19 18 18 14 8 8 9 7 6 8 9 10 11 11 11 13 13 12 12 12 10 12 14 13 16 18 16 14 15 12 6 4 5 6 9 11 12 12 12 15 17 17 19 19 17 14 13 11 9 9 12 12 9 10 12 12 13 13 13 15 15 15 18 18 20 19 14 14 14 13 14 14 11 12 15 17 18 15 13 12 11
15 15 15 15 15 15 16 15 17 19 15 11 13 12 10 9 7 7 10 10 9 9 12 12 10 10 10 9 11 12 10 13 17 15 13 13 11 5 4 5 6 8 9 7 7 10 14 16 17 19 20 20 20 19 18 15 12 12 11 9 9 11 12 15 14 14 16 14 13 17 19 19 19 17 18 17 15 16 16 13 11 12 15 17 16 13 12 11
17 18 17 17 14 13 11 8 11 18 16 15 16 13 12 13 9 5 7 9 8 7 10 11 9 10 11 11 13 14 11 10 12 13 14 14 11 7 5 5 6 7 7 5 5 9 13 14 15 17 19 19 19 18 14 13 15 15 14 12 11 10 11 14 14 15 16 14 13 16 18 18 19 19 20 19 17 17 16 14 14 13 14 15 13 12 11 10
16 18 17 17 17 15 14 10 12 16 15 15 18 14 13 14 11 8 7 8 8 7 9 10 10 12 14 13 15 15 12 10 11 12 14 13 10 7 5 5 6 6 6 6 7 10 14 15 14 15 16 15 15 14 11 11 15 16 16 14 12 10 10 12 14 15 15 15 16 17 16 17 18 19 19 20 19 17 16 15 15 15 15 14 12 10 11 9
14 16 12 12 16 17 16 14 13 13 13 14 14 13 13 14 14 13 10 7 6 7 10 12 11 12 14 13 16 16 13 12 13 13 13 12 10 9 7 7 6 6 6 7 7 10 14 16 13 12 14 14 12 10 9 11 13 13 14 15 14 11 10 12 14 14 14 16 18 18 17 17 17 17 18 20 20 18 17 15 14 13 14 14 12 11 11 9
12 13 9 7 13 14 11 10 10 13 14 13 13 14 14 15 16 14 10 9 10 9 10 14 14 12 12 12 14 16 15 16 17 15 13 12 11 11 12 11 8 5 7 9 8 9 13 15 12 10 14 15 12 8 8 9 11 12 12 13 13 12 11 12 13 13 13 15 17 16 15 15 16 16 16 18 19 17 15 14 13 13 15 14 13 12 11 8
13 15 12 10 12 10 8 8 10 14 14 12 15 14 12 14 16 13 10 12 16 12 9 14 15 11 10 11 13 16 16 16 18 16 13 14 13 12 14 15 11 6 7 10 9 8 12 14 11 10 14 15 11 8 7 8 10 11 12 12 11 11 10 10 11 11 12 13 13 13 13 13 15 16 16 17 18 16 15 15 14 14 14 13 12 11 9 7
10 10 11 14 15 10 9 10 10 14 15 13 15 15 13 14 15 13 13 12 13 13 11 13 14 10 8 8 11 14 14 13 15 14 12 14 14 12 13 14 12 10 9 9 9 10 12 12 10 11 15 15 11 9 10 10 10 11 13 12 10 10 11 10 10 11 12 13 13 12 13 14 15 16 15 15 16 15 16 16 15 14 12 11 11 10 8 6
8 8 8 14 17 11 10 11 10 13 16 15 14 13 13 14 11 12 15 12 8 10 10 10 12 11 10 11 12 12 11 10 10 9 7 9 9 8 9 9 10 11 10 9 9 9 10 12 12 12 15 15 10 8 11 13 14 16 17 16 15 13 11 11 11 11 11 13 14 13 15 16 16 16 16 15 14 14 15 14 13 13 13 11 10 9 7 5
Height
815 814 814 815 815 815 814 814 814 814 813 812 812 811 810 809 808 808 807 806 805 804 803 802 801 800 799 799 799 800 800 799 798 798 799 803 803 801 800 798 798 797 797 796 796 796 795 796 795 794 793 796 802 804 805 808 811 809 816 823 826 834 832 827 832 832 826 824 828 833 834 831 830 833 834 834 833 833 832 831 829 827 826 825 824 823 824 824
814 814 814 814 814 814 814 814 814 813 813 812 812 810 810 809 808 807 806 806 804 803 802 801 800 799 797 797 798 799 800 799 797 798 801 803 802 800 799 798 797 797 797 796 796 796 796 797 796 795 796 801 806 806 806 810 811 814 823 825 823 828 828 829 830 830 830 826 828 834 836 834 831 833 834 831 831 833 830 827 829 827 823 822 822 823 823 824
814 814 814 814 814 814 813 813 813 813 812 811 810 809 809 807 807 806 805 805 804 803 802 801 800 798 797 797 798 799 799 798 797 800 802 802 800 799 798 797 797 797 797 797 796 796 796 797 795 797 799 803 809 808 806 811 814 819 824 819 820 826 829 835 834 832 833 831 831 833 836 836 833 835 834 831 830 830 828 824 825 823 819 819 820 822 822 823
814 813 814 814 814 814 813 813 812 812 811 810 809 808 807 806 806 805 805 804 803 802 802 802 800 798 797 797 799 799 799 798 800 803 802 801 800 798 797 798 797 797 797 797 797 796 796 796 795 797 801 805 811 811 810 815 817 820 822 817 824 833 830 832 834 834 836 835 833 833 837 835 833 836 833 833 829 823 823 822 821 818 817 818 819 820 821 822
814 813 813 813 813 813 813 812 812 811 810 809 808 807 807 806 805 805 804 804 803 803 802 802 800 799 799 798 800 799 800 803 804 803 801 800 799 798 798 797 797 797 797 797 797 797 796 796 797 800 803 807 811 810 814 822 821 820 827 829 833 836 827 829 835 835 836 837 835 835 834 832 834 835 831 833 829 820 818 818 818 817 817 818 818 819 820 822
814 813 813 812 812 811 811 811 811 810 809 808 808 807 806 805 805 805 804 803 803 802 802 802 800 800 800 799 800 799 801 805 804 802 802 801 799 798 797 797 797 797 797 797 797 797 797 798 799 803 806 811 815 814 817 826 824 817 828 837 837 835 828 830 835 834 837 835 833 833 832 834 833 830 832 833 825 818 817 817 817 817 818 818 818 819 820 821
814 814 813 812 812 811 811 810 810 809 809 808 807 807 806 806 805 805 804 803 802 802 802 801 800 801 801 800 800 799 800 803 803 802 802 801 799 798 797 797 797 796 797 797 797 797 799 799 801 807 809 812 818 819 821 825 824 818 824 835 836 835 831 833 836 836 837 832 832 835 832 833 829 827 834 829 818 817 817 817 818 817 818 818 818 818 819 819
813 813 813 812 812 811 811 810 809 809 808 808 807 807 806 806 806 805 804 802 802 801 800 801 801 801 801 800 800 800 801 803 803 802 802 801 799 798 797 797 797 797 797 797 798 798 799 800 803 809 810 814 818 819 824 823 820 820 823 832 835 834 833 836 838 836 836 833 834 836 830 829 829 832 832 819 811 816 817 817 817 818 818 818 817 817 818 818
811 811 812 811 811 811 811 810 809 808 808 808 807 807 806 806 805 804 802 801 800 800 799 800 800 800 800 800 799 800 803 804 803 802 802 801 800 798 797 797 796 796 797 797 797 796 799 802 803 806 808 817 819 819 826 821 818 824 827 831 832 832 834 836 836 834 834 834 835 832 827 829 833 834 823 810 811 816 817 816 816 817 816 816 816 816 817 817
810 810 810 810 810 810 810 810 809 809 808 807 807 807 806 805 804 803 802 800 799 798 799 798 799 799 799 798 798 802 804 803 803 803 802 801 800 798 796 797 796 797 797 797 797 797 799 799 802 804 805 815 820 822 828 822 821 829 831 831 832 834 836 835 834 834 834 833 833 830 826 828 833 832 816 807 815 817 815 814 815 815 814 814 815 816 816 816
809 809 808 809 809 809 809 809 809 808 807 807 807 806 805 804 803 802 801 800 800 799 798 798 798 798 797 796 799 804 804 803 803 803 802 801 800 798 797 797 797 797 796 797 798 798 798 798 801 803 805 812 818 824 830 827 827 831 829 828 833 835 835 836 833 833 833 831 833 832 828 829 833 828 813 810 817 817 813 812 813 814 813 815 815 816 816 815
807 807 807 807 807 808 807 808 808 807 807 806 805 805 804 803 803 802 802 800 800 799 799 798 797 797 796 796 801 804 803 803 803 802 802 801 799 799 799 798 797 797 797 797 799 799 799 800 800 803 808 812 817 823 826 829 830 831 829 826 831 834 832 834 834 834 833 829 833 833 823 822 828 821 810 813 818 816 814 811 812 813 813 815 816 816 816 814
806 806 806 806 806 806 806 807 807 806 806 805 805 804 804 803 803 802 801 801 800 800 799 797 797 796 795 799 803 803 803 803 802 802 801 800 800 800 799 799 798 797 797 797 799 800 800 801 801 805 812 814 819 823 823 829 831 829 831 828 829 828 828 834 835 835 832 830 834 831 817 810 814 813 810 816 818 814 810 808 810 812 813 815 815 815 815 814
805 806 805 805 805 805 806 806 806 806 805 805 804 804 804 803 803 802 802 801 800 799 798 797 797 795 796 802 804 802 803 803 802 802 801 800 800 800 800 800 799 798 798 799 799 800 801 802 802 807 816 818 821 822 823 830 830 829 830 831 834 824 821 834 838 834 829 830 833 828 819 810 806 808 812 818 818 813 808 807 810 810 812 814 814 815 814 813
804 805 804 804 805 805 805 805 805 806 805 805 804 804 804 803 802 802 801 801 800 799 798 798 796 795 799 804 803 803 803 802 802 802 801 801 801 801 801 800 800 800 800 800 801 802 803 802 804 811 820 821 821 819 823 828 829 831 825 824 836 829 822 833 839 838 831 831 832 827 821 814 809 808 812 818 817 814 810 808 810 810 811 812 813 814 813 812
803 803 803 803 804 804 804 805 805 805 805 805 804 804 804 803 802 801 801 801 799 799 798 798 797 796 801 805 804 803 804 803 804 803 803 803 802 802 802 801 802 802 802 803 803 804 803 804 813 821 821 820 822 818 820 824 824 832 827 818 828 828 822 827 835 842 839 833 831 827 823 815 809 808 812 818 816 814 813 809 809 809 810 811 812 813 813 812
802 802 802 802 802 803 803 804 805 805 805 805 804 804 803 802 801 800 800 800 800 799 798 798 797 797 802 805 804 805 806 805 804 804 804 803 803 802 802 803 804 803 804 803 803 805 805 810 820 823 822 828 832 823 819 822 818 825 829 824 831 834 827 823 827 839 841 834 831 831 830 818 809 809 810 813 815 815 814 809 809 809 809 811 812 813 812 812
801 801 801 801 802 802 803 804 805 805 805 805 804 804 803 802 801 801 801 800 800 799 798 798 798 801 806 806 806 808 807 806 806 805 804 804 804 803 803 804 805 805 806 806 806 807 808 815 821 818 820 827 830 824 816 821 820 820 824 822 828 836 833 826 826 836 839 834 832 833 830 819 813 815 812 811 816 815 813 812 811 811 811 811 812 812 811 811
801 801 801 801 802 802 803 804 804 804 804 804 804 804 803 802 801 801 801 800 801 803 804 805 804 808 811 809 809 808 807 807 806 805 805 805 804 804 805 805 806 807 807 808 808 813 815 815 816 815 819 828 837 836 827 829 831 827 829 828 827 828 828 831 833 841 844 835 831 831 828 822 816 814 811 810 816 815 812 814 812 811 812 811 811 810 810 810
801 801 801 801 802 802 803 803 803 804 804 804 804 804 804 804 804 804 803 804 808 810 811 811 811 812 811 810 810 807 807 807 806 806 806 805 804 805 806 806 808 808 812 814 812 821 823 815 820 826 832 842 851 853 848 848 846 839 835 833 835 832 825 832 839 844 848 835 829 837 834 827 819 811 809 811 814 812 808 808 808 808 808 807 808 808 808 808
800 800 801 801 802 802 802 803 803 803 803 804 803 803 804 805 807 807 807 810 813 813 812 813 813 812 811 811 810 808 808 807 807 807 806 806 806 805 807 808 808 809 821 829 822 824 821 814 830 844 848 853 856 859 857 852 849 841 836 830 834 838 830 835 844 844 849 837 830 842 833 818 814 809 809 812 809 804 803 804 803 803 804 805 806 806 806 808
800 800 800 801 801 802 802 802 803 802 803 803 802 802 803 803 804 804 805 810 812 812 813 813 812 811 811 811 810 810 809 808 808 807 807 807 805 806 809 810 810 814 826 830 820 819 819 823 842 854 857 859 859 862 855 848 846 839 837 832 829 838 836 837 845 846 849 838 827 837 830 813 811 810 806 805 804 802 804 806 803 802 801 802 804 803 804 806
800 800 800 800 801 801 801 801 801 802 801 801 801 801 801 802 803 803 803 807 811 812 812 812 811 811 811 810 811 810 809 812 811 808 808 807 807 811 810 810 815 819 823 822 815 813 817 832 852 859 860 856 853 859 853 843 844 841 837 832 830 841 838 828 837 845 849 845 836 837 834 818 808 804 798 800 806 805 806 808 807 808 804 800 804 805 804 803
799 800 799 799 800 800 801 801 800 801 800 801 801 801 802 802 803 803 805 811 814 812 812 813 813 812 811 811 811 811 811 816 815 811 810 808 810 813 813 818 819 819 827 829 820 818 829 847 860 861 859 853 846 851 848 835 836 845 845 838 835 843 843 836 841 846 844 847 847 837 822 810 803 799 794 800 808 804 803 804 802 805 806 805 805 805 805 803
799 799 799 799 799 799 800 799 799 800 799 800 800 801 802 802 804 803 806 815 816 812 813 813 813 813 812 812 812 812 813 815 815 813 812 811 812 813 818 825 820 819 835 838 825 824 841 858 861 855 852 851 843 841 845 838 830 838 848 850 847 847 849 848 847 841 829 828 844 840 814 800 802 799 795 799 802 798 799 800 796 798 803 803 801 800 802 804
798 798 798 798 798 799 799 799 799 799 799 800 800 802 803 802 805 803 806 818 818 813 814 813 813 813 812 813 813 814 814 814 815 814 813 812 812 812 816 825 824 824 835 837 831 834 847 859 860 852 846 846 841 837 848 850 830 828 849 860 858 855 852 850 845 835 822 821 844 850 823 807 803 793 795 803 800 795 797 795 794 796 799 799 798 798 800 801
798 798 798 798 799 799 799 799 799 799 800 800 800 802 803 803 804 803 810 823 820 814 815 814 814 813 813 815 814 814 813 814 814 814 814 812 812 812 811 819 823 826 837 834 825 837 850 853 853 850 846 842 836 835 850 854 832 831 857 865 859 856 852 853 848 836 834 834 841 848 835 823 811 794 799 809 801 794 795 793 793 795 796 796 796 797 799 800
798 798 797 798 798 798 799 799 799 800 800 800 801 803 803 804 804 804 815 825 821 815 814 814 814 813 813 815 815 815 815 816 814 812 814 812 812 811 810 820 824 827 840 829 816 838 852 846 846 848 842 838 838 844 856 856 839 844 865 866 861 861 856 859 851 840 848 839 824 836 841 826 810 798 803 808 800 795 793 791 793 794 795 795 795 797 798 800
798 797 797 798 798 798 799 799 799 800 800 801 802 803 803 804 804 808 821 825 819 816 815 813 813 814 816 814 815 818 816 817 816 812 813 813 811 810 813 826 830 828 838 831 822 841 853 849 851 849 840 840 849 860 864 855 846 855 869 866 864 866 862 862 852 841 847 833 816 834 844 825 804 796 801 804 798 794 792 791 794 795 796 796 796 797 798 799
798 797 798 797 797 799 798 799 800 800 801 802 802 803 804 805 807 818 828 823 816 817 815 813 815 818 818 815 815 819 817 817 820 816 814 814 813 814 821 829 828 825 831 835 836 847 854 855 856 853 849 852 859 867 869 862 859 863 864 859 858 859 859 858 854 845 836 822 824 843 849 833 809 793 794 796 792 788 787 791 795 795 796 797 797 798 798 798
798 797 798 797 798 798 798 799 799 799 801 802 803 804 804 808 815 824 828 820 816 818 815 816 822 822 820 818 817 820 819 819 823 818 813 817 816 815 822 822 820 822 824 828 838 847 851 849 852 857 859 860 859 861 868 869 867 863 855 847 841 839 843 841 840 841 827 816 832 849 851 842 816 791 787 788 788 789 786 787 791 793 794 795 796 798 799 800
798 798 798 798 798 798 798 799 799 801 802 801 804 804 807 816 821 821 821 817 815 818 818 821 826 825 823 822 821 825 824 821 824 824 822 825 822 821 827 823 820 821 820 825 831 835 841 846 854 858 860 861 854 848 856 863 863 857 846 838 827 823 829 826 827 835 827 821 838 850 846 836 812 789 784 782 782 788 789 787 788 790 792 794 797 798 800 802
798 798 798 798 798 798 799 799 800 801 801 802 805 805 811 822 822 822 822 816 816 824 826 826 829 830 825 819 822 830 828 823 825 828 831 830 823 828 837 839 834 823 819 830 830 825 831 843 853 851 851 860 855 840 837 843 850 848 841 833 826 827 832 829 833 841 832 824 839 853 842 821 801 788 787 785 783 790 795 794 792 792 792 794 797 800 801 802
799 799 799 798 799 799 799 800 800 802 802 804 805 808 818 822 821 824 821 817 824 831 831 831 830 827 824 821 827 833 825 823 830 827 825 825 818 820 828 835 840 829 823 830 831 827 824 826 841 846 847 856 856 847 842 841 844 849 850 842 832 833 833 830 832 830 827 829 836 844 830 803 790 788 790 792 792 796 797 797 798 797 796 798 798 800 800 801
799 800 800 799 800 800 800 801 802 802 803 804 807 815 822 818 816 819 816 818 827 828 830 836 829 819 821 825 830 836 826 821 830 827 821 822 817 818 820 825 836 833 823 822 828 837 828 822 843 856 856 858 853 854 858 847 840 852 858 844 834 837 834 841 855 853 850 843 832 830 818 800 793 788 792 796 792 794 795 794 796 795 796 799 797 798 800 800
800 800 800 800 801 801 802 801 802 803 804 806 811 818 818 813 815 818 819 822 825 822 823 827 823 816 819 821 824 833 831 825 827 824 822 826 823 824 826 827 835 835 825 820 824 832 826 826 850 859 856 861 856 856 861 848 837 846 847 838 844 855 844 842 862 875 872 847 825 823 811 797 795 787 788 793 786 788 792 790 791 793 795 797 794 796 800 800
800 800 800 802 802 801 802 802 803 804 804 807 812 816 818 817 822 825 826 828 827 825 821 816 818 819 817 818 819 825 828 826 827 822 820 825 822 822 826 830 838 838 834 831 823 824 825 825 847 855 846 856 865 860 859 858 850 841 838 841 852 858 850 843 843 850 856 839 821 823 815 802 798 788 786 792 786 785 789 787 790 793 794 794 793 795 799 800
800 800 801 802 801 802 803 802 803 803 805 811 813 817 821 822 829 835 833 833 829 824 819 813 817 824 821 817 818 826 828 822 823 822 819 821 819 820 823 826 837 843 844 842 826 826 830 821 838 859 850 853 866 857 847 856 860 848 845 853 851 841 838 842 839 833 838 838 825 821 823 816 803 789 783 785 784 783 785 788 789 789 790 790 791 795 799 801
800 801 801 802 802 803 802 802 805 804 806 813 810 813 824 826 832 841 838 835 829 821 818 816 821 829 828 823 820 826 829 822 822 822 817 818 817 820 825 825 832 842 847 844 829 827 833 820 825 852 857 853 855 846 834 841 856 858 854 856 853 844 838 839 844 839 833 837 833 823 815 802 789 785 778 773 779 781 780 785 786 784 785 787 789 793 797 800
801 802 802 803 802 801 803 803 804 803 806 817 816 817 828 829 831 842 842 836 830 823 820 821 824 824 825 830 829 828 830 827 825 821 817 820 817 817 829 829 828 838 846 846 835 831 835 824 819 841 857 848 839 838 834 831 840 846 844 847 848 848 848 843 847 851 840 833 836 834 816 787 776 783 775 767 776 780 778 780 782 781 782 785 790 792 794 798
802 802 802 804 802 803 804 801 810 817 813 818 823 824 831 831 831 839 842 839 835 831 829 826 824 822 820 825 827 827 829 827 827 823 818 821 816 813 831 838 832 835 838 836 832 830 829 825 823 833 839 830 830 849 856 847 846 842 833 835 836 837 841 835 837 854 856 842 837 841 823 786 773 783 779 773 778 780 780 781 779 780 780 783 790 792 793 796
802 803 802 803 801 802 802 804 827 839 821 815 827 831 834 837 835 835 838 839 835 833 835 831 828 827 823 822 825 829 828 824 827 825 817 819 818 817 836 848 843 839 834 827 830 835 833 829 826 824 827 834 847 864 868 862 861 856 847 845 842 836 832 825 826 840 853 855 852 853 833 789 774 788 787 782 785 786 787 786 781 780 779 782 789 791 793 795
802 802 802 802 801 803 803 808 825 830 821 829 841 840 840 840 835 834 836 835 832 831 832 829 828 827 826 827 828 827 824 820 820 821 817 819 826 833 846 851 845 841 834 826 829 836 834 828 824 819 825 843 858 866 869 870 864 851 848 854 848 837 832 830 833 835 840 847 846 846 831 786 771 791 792 787 793 791 791 791 785 781 779 781 787 790 791 795
805 804 803 802 801 801 803 806 810 810 820 836 838 834 840 842 837 834 832 830 831 830 826 825 828 827 830 835 830 826 828 820 813 820 824 821 829 845 852 850 846 841 834 831 832 833 827 823 824 821 818 824 834 838 843 853 854 841 841 853 850 842 840 838 843 843 836 834 830 827 815 783 773 787 786 783 789 784 784 790 788 783 778 776 782 788 790 794
805 804 805 803 801 802 806 811 808 806 819 829 824 825 831 834 838 839 833 832 836 834 826 826 832 832 833 838 832 832 838 828 815 821 827 825 833 848 851 848 848 842 840 845 845 836 828 824 823 818 815 815 813 812 815 826 837 838 841 849 848 845 839 831 836 838 829 833 835 817 796 778 774 779 775 776 781 777 777 784 787 785 780 776 780 786 789 792
804 803 804 803 803 806 813 822 816 807 814 818 815 823 825 822 833 843 839 834 836 839 833 830 835 833 830 832 826 825 835 837 832 827 823 823 832 845 850 848 847 845 844 849 848 840 831 829 826 817 813 813 809 812 826 830 826 825 829 837 842 845 841 833 834 830 823 834 832 806 790 784 775 772 771 771 775 775 776 779 780 781 779 778 782 786 788 792
804 804 806 804 803 806 811 819 817 810 813 812 808 818 823 820 828 837 838 837 837 839 835 832 833 826 821 825 821 821 832 838 836 830 823 825 834 844 850 849 847 847 846 846 845 839 828 824 828 825 819 821 821 825 838 836 823 818 820 823 832 841 843 835 828 820 820 825 811 790 793 793 775 768 771 767 768 774 776 776 775 776 776 777 783 787 788 791
805 806 814 811 806 806 807 812 816 814 815 816 815 819 821 819 820 821 828 838 840 838 830 825 827 823 819 821 816 816 828 829 825 825 824 828 835 839 842 845 847 847 846 845 843 838 827 822 831 833 823 823 831 838 842 838 829 826 822 818 823 835 838 829 820 818 819 810 790 780 790 790 774 769 770 765 764 769 770 772 775 776 776 778 781 784 785 789
809 809 818 818 810 813 818 821 822 816 813 816 817 817 817 814 812 816 827 832 829 833 831 816 815 821 823 823 817 814 818 815 811 817 821 825 831 831 829 832 841 848 846 839 841 841 829 822 834 840 825 819 832 845 849 841 831 826 823 820 821 825 828 822 815 816 816 804 789 786 794 788 770 765 769 765 764 769 771 773 776 775 772 774 777 779 782 787
805 803 810 814 813 821 826 825 821 813 815 819 814 814 819 814 809 816 826 820 811 823 833 817 811 823 828 826 821 812 811 808 805 811 818 819 822 825 820 815 826 845 846 837 840 842 830 825 838 840 823 818 833 846 848 845 838 826 818 820 825 826 827 827 822 819 819 810 798 798 804 791 764 757 766 766 763 768 769 769 770 770 770 772 774 778 782 785
803 802 805 804 807 818 822 822 822 813 812 816 811 811 816 811 810 814 815 817 814 815 822 816 812 824 834 833 824 814 814 816 812 814 818 815 816 820 818 814 820 832 838 838 839 837 831 831 838 836 820 816 833 842 836 834 835 824 809 809 819 821 818 816 815 813 808 799 796 804 804 781 757 754 762 763 764 766 764 763 764 766 770 773 772 774 779 782
804 804 805 801 803 816 819 818 821 813 806 809 810 812 812 811 818 817 807 814 824 822 822 822 818 821 826 826 821 817 820 824 822 824 828 825 826 827 826 826 825 824 830 836 836 838 836 828 828 831 818 814 837 848 833 823 817 802 786 782 790 799 802 803 803 802 797 791 792 793 778 757 752 758 760 760 764 765 761 761 762 762 764 768 768 770 774 777
Wind_Speed
8 6 6 7 5 3 5 6 3 2 3 3 5 5 4 4 4 6 6 6 5 6 8 10 10 11 10 7 9 9 5 7 12 17 13 9 14 14 13 10 6 6 5 5 2 5 3 4 4 4 5 5 4 2 3 3 3 4 4 4 1 4 4 6 8 7 4 2 2 2 1 6 1 3 1 1 2 3 3 4 5 5 6 10 9 7 4 3
10 8 7 7 7 5 6 7 5 4 3 3 5 5 5 4 4 6 7 6 5 6 8 9 8 8 7 7 11 11 7 2 11 18 12 13 16 13 11 7 4 4 4 5 4 4 3 2 3 5 6 4 3 3 2 3 4 4 3 2 3 6 5 5 7 6 3 2 1 1 1 3 4 1 1 1 4 5 4 6 4 5 10 12 13 12 9 6
11 9 8 8 8 6 7 8 6 6 4 4 5 5 4 4 5 6 7 7 4 5 6 6 7 6 1 7 11 11 8 2 7 9 11 15 15 12 9 4 2 3 4 4 4 4 5 3 2 5 5 4 2 3 3 4 3 2 4 2 5 6 4 4 5 4 3 2 2 1 1 1 3 2 0 1 5 5 4 6 3 5 9 9 9 9 9 9
13 11 9 9 9 7 9 10 7 7 6 5 6 6 5 4 4 6 8 6 3 4 4 4 7 9 4 5 9 10 7 2 4 6 12 16 14 11 7 3 2 2 3 2 3 4 6 6 7 6 5 3 4 4 3 3 1 2 3 3 5 4 2 3 5 3 3 3 3 3 2 1 3 1 1 1 4 7 6 7 7 8 8 7 7 4 7 9
13 11 10 10 10 9 11 11 9 9 8 7 7 6 6 5 4 6 7 5 3 3 3 2 5 8 6 2 7 9 4 3 3 8 14 15 13 10 5 3 2 1 2 2 2 5 6 5 8 7 5 3 4 4 2 3 2 3 1 3 5 3 2 1 2 1 1 4 4 4 3 2 1 0 3 5 3 6 4 5 9 9 8 7 5 2 6 7
12 11 10 11 11 11 14 13 10 10 9 8 7 6 6 5 5 5 5 4 4 5 6 5 2 5 5 1 6 8 2 1 4 10 14 14 12 10 5 2 2 1 1 2 2 5 4 6 7 4 4 3 2 2 0 3 3 2 1 1 4 3 2 2 2 1 2 6 5 4 3 1 2 3 2 6 9 10 6 5 7 7 6 6 2 3 6 7
12 11 11 11 11 12 15 13 10 10 10 8 6 6 6 4 4 4 4 5 6 7 8 8 5 4 4 1 4 2 4 2 7 11 12 13 12 9 3 2 2 0 1 2 2 4 4 5 5 3 5 3 1 2 1 4 4 4 1 1 2 2 1 2 2 1 2 5 5 3 1 1 1 3 1 5 13 11 9 7 5 4 2 3 3 5 6 8
12 13 13 13 12 13 14 12 11 10 9 8 6 6 5 3 3 4 5 7 8 9 10 10 10 7 5 4 3 2 4 1 8 11 11 11 11 9 1 1 2 1 2 2 3 5 4 4 5 4 4 2 3 3 2 2 4 4 3 2 1 1 2 3 2 3 1 3 2 1 1 4 5 1 1 10 13 8 9 8 7 5 2 2 4 5 6 7
15 15 15 15 15 15 14 12 11 10 9 8 6 5 4 4 4 4 6 8 8 8 9 9 9 7 5 3 3 4 2 3 8 11 11 10 10 8 1 1 1 1 3 2 3 6 3 3 4 4 4 3 4 4 2 1 1 2 3 2 3 2 4 3 0 3 2 1 0 1 4 5 4 1 4 12 9 4 5 4 5 5 5 6 5 6 7 6
17 17 17 17 17 17 14 11 10 9 8 6 4 4 4 4 3 3 3 4 5 3 4 5 6 6 6 2 5 4 1 4 7 9 10 8 8 7 4 2 2 2 3 3 4 6 3 5 6 5 7 4 3 3 2 1 2 3 6 5 5 2 4 3 0 4 4 2 1 3 5 4 2 2 4 7 4 5 5 3 2 5 7 8 5 6 6 6
18 18 18 18 17 16 13 10 9 8 6 4 3 4 4 3 2 0 1 4 6 4 4 4 2 4 5 3 6 3 2 5 6 8 9 7 9 10 10 6 3 3 3 5 5 3 2 9 11 6 3 2 3 3 2 1 3 4 5 5 6 5 2 3 2 4 3 1 2 4 4 3 3 1 6 5 5 5 3 3 2 3 6 6 5 6 5 8
16 17 19 18 16 14 11 9 8 6 4 2 3 4 3 2 1 2 2 4 4 2 2 5 5 3 4 7 5 1 4 6 7 8 8 6 9 11 11 9 6 4 3 5 5 5 8 12 12 7 0 4 4 2 2 2 3 3 3 3 5 7 2 3 2 3 3 1 3 3 2 4 1 6 10 6 6 5 2 3 5 2 5 5 5 6 5 9
15 15 16 16 13 11 9 8 7 4 2 2 4 4 3 3 3 3 3 3 2 2 2 2 3 1 4 5 1 3 5 6 8 7 5 5 6 8 10 10 10 8 5 7 7 7 9 8 9 8 3 6 3 1 4 3 4 2 2 4 2 6 3 4 2 4 3 1 2 1 3 5 6 10 10 6 6 4 3 4 5 4 5 5 5 5 5 9
12 12 13 13 11 9 8 6 5 3 0 3 4 2 3 4 4 3 2 1 2 3 2 3 2 1 4 1 2 5 4 4 8 7 7 6 3 5 8 8 10 11 10 11 11 9 9 9 12 10 3 4 3 2 4 5 4 1 1 3 2 1 3 4 2 4 2 0 4 4 1 6 8 10 8 6 3 0 3 6 5 5 5 5 5 5 6 8
10 11 12 12 10 8 7 5 4 2 1 1 1 2 2 4 4 2 0 1 3 2 2 3 3 3 5 2 2 4 5 4 8 11 11 8 5 4 5 7 9 13 14 14 14 12 10 10 11 7 1 2 3 4 4 4 3 3 1 2 3 0 4 6 2 3 1 2 5 5 2 6 7 9 6 4 4 4 4 7 6 6 6 5 5 5 5 8
8 9 10 10 9 7 6 5 5 2 1 2 4 4 1 2 3 1 2 1 4 2 1 2 4 5 5 1 1 3 4 4 8 11 9 8 7 6 4 5 7 8 10 11 10 9 8 9 6 3 2 3 5 5 3 4 4 4 1 2 2 1 3 4 1 3 2 2 5 3 2 5 4 5 5 3 4 7 5 7 7 6 6 5 5 5 5 6
7 7 7 8 7 6 6 6 6 2 1 1 2 3 4 2 3 2 2 1 4 3 4 4 4 6 3 1 1 3 4 4 9 9 8 8 7 6 3 3 4 4 6 6 5 5 7 7 2 0 3 4 3 4 3 3 3 4 3 1 2 1 2 3 1 3 5 3 3 3 2 7 8 7 9 7 4 6 6 8 8 6 6 5 5 5 5 5
5 5 5 6 6 6 6 7 6 3 2 2 2 1 4 6 5 3 1 1 2 2 5 5 6 4 1 3 1 3 5 6 8 8 8 7 5 6 5 2 2 2 3 4 5 5 5 4 2 1 4 5 4 5 3 3 3 2 0 1 2 1 2 3 2 2 7 5 2 3 4 11 13 10 11 9 4 5 8 7 7 6 6 6 5 5 5 5
4 4 4 5 5 6 7 8 5 3 3 3 3 2 2 5 5 4 5 5 2 1 0 2 4 2 2 3 3 5 6 6 7 7 8 8 4 4 4 5 3 2 2 2 4 5 3 3 4 3 1 2 3 2 5 5 4 5 4 4 2 2 3 4 4 3 4 4 4 4 6 10 13 12 11 9 4 3 7 6 5 6 6 6 5 5 6 5
4 4 5 5 5 6 6 7 5 5 5 4 3 1 1 1 3 4 7 9 2 2 1 2 1 1 1 3 5 7 5 2 4 5 10 10 4 2 3 5 6 6 3 1 2 3 3 5 3 2 4 3 3 3 4 4 4 5 4 4 3 1 4 3 3 5 3 2 5 4 5 10 12 13 12 8 5 4 6 5 6 6 5 6 5 6 6 6
4 4 5 5 5 5 5 6 6 6 6 5 3 1 2 2 1 1 1 4 1 2 1 2 3 0 1 2 6 6 2 1 2 4 11 11 3 1 2 3 5 4 3 2 2 3 5 6 1 4 5 4 3 3 4 4 4 5 5 3 2 1 5 3 1 5 4 2 4 2 6 11 11 12 10 6 5 5 6 5 6 6 6 5 5 7 7 5
3 4 5 5 6 5 5 6 6 7 6 4 3 2 2 3 2 3 2 2 1 1 1 1 0 2 2 1 4 5 4 3 3 4 11 12 4 1 2 4 5 2 3 2 1 5 6 3 3 4 4 4 4 3 3 4 5 4 3 3 2 1 4 4 2 4 4 2 4 5 7 12 12 10 9 6 4 6 5 5 6 5 5 5 5 6 6 5
3 4 5 6 6 6 6 6 6 6 5 3 3 2 0 1 5 5 3 3 1 2 2 2 2 3 4 1 3 4 5 3 1 5 12 10 3 1 3 6 5 2 4 4 2 3 2 2 3 2 4 4 4 3 4 5 4 3 3 3 1 3 3 3 3 5 4 1 4 5 5 9 9 7 7 5 4 5 5 5 6 6 6 6 5 4 5 5
2 3 5 6 5 5 5 5 5 4 3 3 1 2 2 5 7 4 4 3 1 1 0 1 1 0 2 2 4 4 3 1 1 5 12 7 2 1 4 5 4 4 4 2 6 6 2 2 2 4 2 3 3 4 4 4 3 3 2 4 2 1 1 3 5 6 4 1 2 4 5 6 5 4 6 5 3 4 5 4 5 5 6 5 4 4 5 5
3 3 3 3 4 4 4 3 3 3 2 2 3 4 7 8 5 2 4 3 2 3 1 1 1 0 0 1 4 2 2 1 1 4 8 5 2 1 3 2 4 3 2 2 8 7 3 1 1 4 3 3 4 2 1 3 2 3 1 3 4 3 3 4 6 5 4 3 2 4 4 5 5 3 6 5 6 5 5 3 4 5 5 4 5 5 5 5
3 2 1 2 3 3 2 2 3 3 2 1 5 8 9 6 3 3 4 3 1 3 2 1 1 1 1 2 4 0 2 2 2 2 4 4 0 2 3 2 2 3 5 3 5 3 2 1 2 3 3 4 5 1 2 3 3 1 1 3 4 4 2 1 4 3 2 2 2 3 1 4 6 5 6 4 6 7 6 3 4 5 5 4 5 5 4 4
3 1 1 2 4 4 1 1 3 3 1 1 7 11 9 6 5 3 4 4 1 1 1 1 0 2 1 2 2 2 1 3 1 1 3 4 3 2 4 1 2 2 2 3 2 1 1 2 4 4 5 5 3 1 2 3 4 0 2 4 4 3 2 1 3 2 1 3 3 4 2 2 4 6 6 3 4 6 6 4 4 5 4 4 5 5 5 5
3 0 1 2 6 5 0 1 5 3 2 5 11 11 8 6 3 2 4 3 1 0 1 1 1 1 1 1 3 2 1 2 2 1 3 4 3 2 4 1 4 3 0 2 1 1 1 1 0 2 4 2 1 1 2 3 3 2 3 4 3 3 3 3 4 1 1 2 3 4 3 0 5 6 5 3 0 4 6 6 5 5 3 2 1 3 4 5
4 1 1 2 5 6 1 2 4 2 3 10 12 8 6 3 1 3 4 1 1 1 1 1 0 1 3 3 4 3 1 2 1 3 4 4 4 5 4 3 7 7 3 3 3 2 1 1 3 3 2 1 1 1 0 2 2 2 4 3 3 3 3 3 3 1 2 2 4 4 2 0 4 6 3 2 1 6 7 6 6 5 4 2 1 1 0 0
4 1 2 2 4 5 2 1 2 2 6 11 10 6 4 2 4 5 2 1 0 0 1 1 1 2 4 3 4 5 3 2 3 4 3 2 6 7 4 3 5 7 4 6 5 1 1 1 2 2 1 2 3 2 1 2 2 4 4 4 3 3 3 3 2 2 3 2 5 5 2 0 3 5 4 3 4 6 6 4 5 4 2 2 1 1 2 3
4 2 2 2 3 3 2 1 2 5 9 11 9 5 3 3 4 5 1 2 1 1 1 1 2 4 5 2 1 4 3 3 5 4 3 3 6 6 4 2 3 5 4 5 4 2 2 2 1 1 1 3 4 3 2 2 2 4 3 2 2 3 3 3 4 3 2 4 6 4 3 1 2 5 5 5 6 5 7 6 6 6 5 4 2 1 1 2
5 4 1 2 3 3 1 1 5 8 11 12 7 4 4 2 1 2 2 3 1 1 0 1 2 3 4 1 2 4 3 3 4 4 2 2 3 3 2 2 2 3 4 2 2 2 1 1 1 1 1 2 3 3 3 4 4 3 2 3 3 3 4 2 3 1 2 4 3 3 2 1 5 7 6 7 7 6 6 6 7 8 8 6 4 3 2 2
5 6 4 2 2 2 2 5 8 11 12 10 4 4 6 4 2 3 2 2 1 1 1 1 1 1 1 2 2 3 2 1 3 3 1 1 4 3 1 2 3 2 0 1 1 2 2 2 1 1 1 1 3 1 1 1 2 2 2 3 3 2 3 3 4 2 3 3 2 3 2 2 5 5 6 7 7 5 6 5 5 6 7 7 5 1 1 3
5 7 6 6 6 6 7 9 10 12 10 7 4 4 4 0 3 2 2 3 1 2 2 1 1 1 2 1 1 2 1 0 2 3 2 2 3 2 1 1 1 3 4 2 1 1 0 3 1 1 1 1 1 2 2 2 3 2 3 4 3 3 2 3 4 2 4 4 3 4 2 3 3 2 5 7 6 5 4 5 4 4 4 4 2 1 1 4
5 6 7 8 8 8 9 9 9 10 7 4 6 5 3 3 3 2 3 4 1 1 1 0 2 4 3 3 2 1 1 0 2 3 3 2 2 2 1 2 1 2 4 2 1 1 1 4 2 1 2 1 0 2 1 3 2 1 2 4 2 2 3 1 3 4 2 3 3 3 3 4 3 4 5 4 3 3 2 1 1 4 3 2 2 3 4 5
4 5 5 7 6 6 7 7 8 7 5 5 6 2 3 4 2 3 3 1 2 3 2 1 3 4 2 4 3 3 1 0 2 2 1 1 3 3 2 3 2 2 3 4 2 1 1 3 2 2 2 1 1 2 1 1 1 1 1 1 2 3 5 4 1 1 3 1 3 2 3 5 3 4 5 4 0 2 2 0 3 5 3 2 5 6 6 5
3 3 4 5 5 4 4 5 7 6 4 6 4 3 4 2 1 3 2 0 1 3 4 1 0 1 1 2 2 3 1 1 2 1 1 2 2 3 2 2 2 2 2 3 2 3 2 2 3 1 1 1 1 1 2 1 1 3 2 3 2 2 4 3 0 3 4 0 4 2 3 5 2 2 5 3 4 6 5 4 4 5 4 4 6 6 5 6
4 3 3 5 4 2 3 4 6 5 5 5 1 3 3 1 0 1 1 0 1 3 4 2 1 0 2 2 2 2 1 1 2 1 2 1 1 3 4 2 1 1 1 1 0 1 2 1 4 0 1 2 2 1 1 2 2 3 2 2 1 2 1 2 1 1 1 2 4 4 4 3 3 4 3 4 9 9 8 7 6 7 7 6 7 6 6 6
3 2 2 4 4 3 3 4 4 4 5 3 3 3 1 1 2 1 1 0 1 2 2 3 0 1 3 4 2 2 1 3 2 1 1 1 1 1 2 2 2 1 1 2 2 1 2 1 3 2 1 2 2 1 2 1 3 3 0 1 1 3 3 1 1 2 2 2 3 4 5 3 6 6 6 10 12 11 10 9 8 9 9 7 7 7 7 7
2 1 1 2 4 2 3 4 3 5 4 2 4 2 0 1 2 1 1 1 1 1 1 2 1 1 3 3 2 2 0 1 3 2 1 1 1 1 0 1 3 3 0 1 1 1 3 1 3 3 2 1 1 2 4 4 3 2 1 0 1 1 1 0 1 1 3 2 2 1 4 6 6 4 7 10 10 10 11 10 9 9 9 8 7 7 7 7
3 2 2 3 4 1 3 4 4 3 3 2 2 1 0 0 1 2 3 2 1 0 1 3 3 2 3 2 2 2 2 1 2 1 2 2 1 1 1 1 2 3 2 2 1 1 1 2 3 1 2 3 4 3 2 4 4 4 4 3 4 3 3 2 3 2 2 2 3 3 3 8 6 3 6 6 6 8 8 8 8 8 9 8 6 7 7 7
4 1 2 4 3 2 4 5 1 2 3 2 1 1 0 1 1 1 2 2 1 0 1 2 2 2 3 2 2 3 3 1 2 1 2 3 2 1 1 3 1 2 3 2 2 2 2 3 2 2 3 3 3 3 0 1 3 4 2 1 3 3 4 5 3 3 1 1 1 3 1 8 7 3 5 5 5 5 5 6 8 8 8 7 6 6 6 6
3 2 1 6 4 1 5 3 2 2 1 2 2 0 0 1 1 0 1 1 0 1 1 0 1 2 2 1 2 3 3 3 4 3 3 3 1 1 2 2 1 1 2 1 1 0 1 3 1 3 3 2 3 2 1 2 3 2 1 1 3 2 3 5 4 3 2 3 3 2 3 8 6 2 3 5 5 5 5 6 8 7 7 7 6 6 6 5
2 3 1 6 4 2 4 2 2 1 2 2 2 1 1 1 2 1 1 2 1 2 2 1 1 1 1 1 2 2 2 2 3 2 2 3 1 1 2 2 1 1 1 1 2 1 1 1 2 2 4 5 5 4 4 3 0 2 2 1 2 3 5 3 2 3 1 5 6 4 5 8 6 4 4 4 4 5 7 7 7 7 7 7 6 5 5 6
1 0 2 4 6 5 3 3 5 3 2 1 1 1 1 1 1 1 2 2 1 2 2 1 1 1 2 2 2 1 0 0 1 1 1 2 1 1 2 3 2 1 1 2 1 0 1 1 3 4 2 3 3 3 3 2 1 2 1 2 3 4 6 3 2 3 3 4 6 6 7 7 6 6 7 6 4 5 7 7 7 7 7 6 4 5 5 6
1 0 2 4 6 6 2 1 4 5 4 3 1 1 1 1 2 1 1 1 1 2 1 1 1 2 2 2 2 0 1 1 1 1 1 2 1 1 1 2 1 1 2 2 0 2 2 1 2 5 6 6 5 5 4 2 2 2 3 3 4 5 4 4 4 3 5 3 3 9 8 8 12 8 6 7 5 6 7 6 7 7 8 6 4 4 4 6
2 1 1 0 3 3 3 3 3 4 2 4 3 1 2 2 2 1 1 1 1 1 0 0 2 2 2 3 2 1 2 1 2 0 2 2 1 1 2 1 1 1 2 1 1 3 4 2 3 5 6 6 5 5 2 1 3 6 5 4 6 7 6 6 6 6 6 4 7 10 7 8 16 12 7 8 7 6 7 8 9 8 7 6 4 4 4 5
1 2 2 2 1 1 1 1 2 4 2 1 2 1 1 1 1 2 2 1 1 1 2 1 2 5 6 5 4 2 1 1 2 2 2 1 1 1 1 0 1 3 2 1 2 3 5 2 3 3 5 6 3 2 2 3 4 5 6 7 8 9 10 12 13 9 8 7 13 8 7 9 17 12 8 9 9 8 9 9 6 4 4 4 5 6 6 8
1 2 0 1 0 3 2 0 2 5 4 2 1 1 3 4 5 4 2 2 2 2 2 3 6 6 6 5 4 3 3 3 2 3 3 3 2 2 1 1 2 2 1 1 1 1 4 3 2 2 4 7 3 3 2 4 4 4 7 10 9 10 14 15 13 11 10 14 18 13 9 14 19 14 9 8 8 8 7 4 2 4 6 6 6 6 8 10
1 2 1 2 2 2 1 2 3 4 2 2 1 2 3 6 6 4 2 4 2 2 2 5 6 3 4 5 5 4 7 6 2 2 5 5 1 3 3 3 3 1 1 1 0 1 1 2 1 3 2 7 4 4 3 2 4 6 10 11 9 9 11 12 11 8 8 14 18 14 12 18 19 11 7 8 8 6 6 7 8 9 8 7 7 8 9 11
1 1 3 4 3 0 0 2 3 4 1 1 3 3 3 6 8 4 2 3 4 5 6 7 5 2 3 2 6 7 7 6 2 2 5 6 2 2 2 2 5 5 2 2 1 0 2 1 1 4 2 6 4 5 6 4 2 8 13 13 12 11 9 10 9 8 11 15 14 7 8 16 14 3 5 8 8 8 10 12 11 10 8 8 10 10 11 12
2 2 2 5 2 1 1 2 3 3 2 3 4 4 2 3 5 5 3 1 2 3 5 7 6 4 3 3 9 9 6 6 4 2 3 3 3 3 2 3 5 6 5 5 2 1 3 3 1 3 1 6 5 4 4 6 5 8 11 11 13 13 11 8 6 9 15 14 9 7 12 15 7 2 5 7 7 9 12 12 11 9 7 8 9 10 11 12
Wind_Direction
277 285 285 285 290 314 350 346 353 326 299 274 299 308 300 299 304 304 304 301 303 304 299 300 300 290 274 235 195 178 135 83 67 57 59 18 352 341 325 316 332 355 5 9 82 147 107 54 35 60 82 56 12 342 35 24 42 50 80 96 161 187 205 188 180 198 181 322 277 258 201 143 216 290 250 351 16 345 303 282 275 279 257 234 239 244 278 287
271 278 282 283 281 297 341 334 323 323 300 274 288 293 294 303 310 308 303 297 302 312 309 313 316 299 265 214 187 169 167 128 60 53 37 0 352 337 319 317 335 9 26 32 81 115 97 28 354 53 58 42 346 359 44 3 44 86 108 105 234 201 206 197 179 199 169 42 298 222 352 156 183 235 25 253 287 345 326 289 300 285 271 259 252 248 259 249
269 276 283 287 280 285 324 324 314 318 309 294 297 297 302 320 316 309 305 296 297 314 315 335 359 0 297 194 183 176 201 247 50 34 4 357 351 335 325 318 319 27 36 37 66 76 105 133 83 74 56 51 1 12 55 10 22 134 116 129 245 214 212 221 190 201 196 133 108 182 41 200 222 229 305 257 284 305 269 264 266 259 266 267 263 242 234 223
264 272 283 288 275 270 314 319 303 306 311 308 308 310 318 326 316 307 303 291 295 318 318 2 26 30 45 177 182 190 216 18 34 332 352 358 348 338 326 296 300 23 39 48 65 79 104 102 76 70 70 53 346 23 62 347 342 122 118 180 228 202 174 208 197 215 219 154 132 159 121 268 257 215 176 116 318 299 255 235 222 236 247 249 275 246 201 202
256 266 283 285 273 276 313 317 297 298 309 314 314 317 321 320 311 303 296 282 289 289 276 334 30 35 38 154 197 214 239 24 349 338 356 354 345 338 313 282 295 344 44 61 88 101 98 75 61 51 62 64 355 35 52 324 59 86 78 196 211 188 126 206 207 192 147 116 113 136 148 224 263 240 184 157 228 255 234 215 209 224 232 228 267 238 183 194
251 260 279 279 271 283 311 314 296 293 304 312 311 314 314 309 308 299 284 280 285 264 254 269 0 31 24 65 210 230 223 174 332 355 356 352 348 337 315 284 295 308 50 99 125 106 77 41 55 50 54 60 18 79 177 320 41 99 295 248 220 206 94 358 342 344 134 116 139 173 197 159 51 293 215 174 221 231 224 207 198 224 234 219 208 152 171 194
253 254 266 269 265 282 304 304 290 287 297 303 304 310 302 293 299 285 273 287 284 263 251 252 273 312 337 335 210 238 104 137 341 355 353 358 351 336 324 278 320 231 169 141 136 107 87 61 81 113 81 74 154 119 22 329 36 90 192 241 212 188 82 344 3 358 162 149 188 193 176 160 172 280 355 230 240 238 243 236 213 240 264 201 182 171 191 207
255 252 257 262 264 283 295 291 283 284 293 298 302 303 284 269 274 275 290 295 283 265 253 252 261 268 287 269 198 32 50 341 338 351 354 6 358 350 342 243 17 154 171 145 169 145 120 95 126 147 89 99 157 103 24 359 37 79 168 206 119 89 342 327 16 26 134 171 220 165 230 235 213 214 334 259 254 250 253 254 245 250 279 206 202 211 216 221
258 257 260 261 266 283 287 281 281 283 289 293 294 283 259 254 271 298 307 300 292 269 255 251 250 244 258 254 119 60 351 326 345 351 356 10 9 7 25 186 56 176 154 119 147 147 154 155 170 177 138 145 124 84 12 89 199 143 142 151 90 44 337 348 3 352 340 253 284 215 285 278 226 219 272 261 265 294 290 278 254 229 235 236 223 228 221 227
258 260 261 262 269 281 280 276 277 278 284 282 274 260 247 259 296 324 321 331 343 302 244 229 232 224 223 226 80 74 320 4 356 350 358 10 20 33 56 79 119 176 153 108 104 127 187 187 165 149 129 119 101 70 337 154 180 126 107 108 81 34 322 19 161 323 324 259 310 234 265 285 281 310 267 267 302 332 327 316 261 179 221 239 239 251 239 244
258 260 260 264 271 275 275 274 275 275 275 261 256 259 256 278 314 304 327 4 15 55 99 116 133 193 188 118 90 111 11 14 357 356 359 9 33 45 51 56 111 148 131 91 91 89 134 155 136 122 128 120 107 58 5 174 132 103 101 98 35 2 316 24 33 326 338 227 212 202 245 299 353 291 238 267 333 334 326 314 319 177 234 254 261 276 267 258
259 260 262 264 266 268 271 273 272 267 254 247 282 272 263 277 235 218 284 341 354 45 80 88 87 135 118 76 85 92 13 11 3 2 353 9 38 41 45 50 71 102 118 95 97 90 108 135 115 88 119 126 118 66 130 146 95 93 81 106 355 2 19 350 349 303 332 199 214 202 312 330 243 238 247 276 330 337 10 337 330 293 276 289 282 290 276 268
261 262 265 265 262 264 265 266 264 243 225 293 296 273 253 249 228 249 291 341 6 5 326 48 62 119 83 64 36 18 14 7 6 2 358 15 35 35 39 45 58 71 97 106 108 109 114 130 105 97 103 104 122 174 122 70 64 92 48 107 1 3 7 332 343 295 315 115 284 301 330 300 254 251 259 296 325 324 332 313 322 319 304 303 293 296 281 273
261 261 263 263 263 262 257 261 245 201 252 317 296 261 237 232 226 260 296 329 336 359 12 52 45 67 75 69 273 18 5 359 9 10 23 25 28 40 38 41 58 73 89 98 96 101 114 115 98 95 80 90 141 130 60 20 34 90 45 87 27 351 273 314 351 326 337 121 3 50 242 273 276 276 278 314 330 232 303 302 313 317 308 306 299 291 283 277
256 254 255 257 258 253 249 243 201 168 17 332 123 134 222 230 231 257 155 9 346 10 63 56 38 82 80 23 280 18 4 12 15 12 18 16 19 27 23 45 69 79 86 91 90 90 101 102 83 76 66 21 80 84 37 2 16 39 74 300 345 114 268 309 352 10 40 283 7 66 220 272 278 277 284 336 33 66 341 305 304 304 297 298 295 291 289 288
258 254 251 249 245 238 233 210 183 164 74 124 110 91 52 214 208 168 140 51 22 38 96 44 38 83 98 15 332 15 10 20 9 4 6 3 11 14 14 62 73 82 91 92 89 77 64 72 64 70 131 51 57 81 50 15 356 354 66 230 284 109 286 312 17 24 41 314 348 44 245 276 266 266 278 303 26 28 341 297 292 288 286 286 286 294 295 294
259 254 247 235 225 220 212 193 186 182 148 165 133 63 36 109 157 106 144 66 36 57 85 81 53 73 89 9 36 350 340 351 354 353 355 358 8 20 38 91 76 88 101 84 67 42 34 50 72 295 66 57 62 86 56 353 309 320 27 94 239 186 252 304 328 354 20 24 336 2 261 257 259 277 291 288 335 343 298 277 278 276 279 281 283 291 288 289
255 248 233 213 205 204 200 193 195 200 200 247 257 313 58 90 100 87 151 291 348 47 76 60 41 71 59 353 6 307 312 318 339 350 358 359 9 30 43 78 109 100 56 43 34 29 26 31 71 66 29 25 33 73 120 228 222 226 243 121 297 288 227 267 278 333 13 19 320 323 275 267 274 283 286 285 318 301 268 265 270 272 277 278 287 284 278 287
249 234 216 204 200 199 199 200 208 223 238 270 269 209 117 95 81 60 51 39 9 250 89 359 26 111 225 316 309 312 316 319 339 358 6 1 354 19 35 51 75 91 50 35 15 21 39 28 48 79 30 11 10 93 152 189 165 160 179 145 144 282 259 248 263 304 16 1 288 258 261 278 286 289 286 290 326 291 266 275 271 270 274 271 280 275 273 281
239 225 211 203 202 202 203 213 227 238 253 275 265 209 161 87 27 359 28 39 69 152 120 231 146 77 289 315 326 331 329 341 359 10 10 360 349 356 6 28 37 45 62 179 330 8 80 64 55 176 196 197 224 192 137 124 118 120 111 92 113 227 287 275 293 316 17 355 272 243 269 280 281 283 285 297 330 306 271 271 268 265 263 259 259 261 267 264
241 230 217 210 210 212 212 222 235 243 262 273 256 234 179 173 45 330 9 29 220 173 39 238 198 252 273 289 335 349 16 41 353 12 11 359 13 124 317 26 53 35 14 251 278 353 64 80 127 215 197 179 177 169 118 86 79 84 102 75 43 209 265 272 305 310 347 355 276 330 316 286 279 282 286 303 322 290 251 235 253 253 251 253 247 254 262 266
252 238 226 221 219 221 219 226 238 250 264 263 238 197 181 206 175 153 135 75 281 216 357 286 215 318 290 268 339 6 59 42 346 357 3 359 29 138 305 53 92 125 349 338 326 11 41 100 210 223 167 106 75 114 105 87 87 67 90 90 15 294 279 295 317 321 349 338 280 351 342 292 285 287 284 281 259 262 247 221 231 232 244 252 234 242 256 272
253 238 230 226 225 226 224 230 242 253 255 238 219 192 170 190 165 147 84 83 335 338 8 17 41 337 333 11 6 27 63 58 286 323 350 1 32 78 76 75 90 109 8 13 125 95 49 206 200 154 142 108 52 47 86 88 78 60 79 102 281 316 0 314 306 324 329 288 284 332 327 289 296 311 294 273 245 272 281 260 250 232 231 238 233 235 235 247
267 244 235 229 224 222 221 229 237 241 235 214 174 153 112 111 142 134 60 80 344 324 347 357 133 210 335 5 4 29 89 106 215 309 344 14 113 50 83 118 92 62 1 25 113 110 90 260 144 98 100 138 97 41 79 95 30 4 99 124 172 287 304 254 286 322 327 355 347 345 331 297 318 341 295 302 337 309 315 307 267 246 241 252 275 268 232 225
305 260 236 220 209 207 208 208 210 202 193 172 137 130 122 116 130 105 69 77 323 308 314 291 172 121 224 354 349 352 136 63 204 275 333 22 125 89 77 130 93 91 237 96 88 90 90 284 145 104 52 76 110 56 118 135 39 331 227 165 162 177 221 274 312 342 15 21 9 24 3 294 316 315 258 301 349 313 327 342 257 265 284 274 271 271 255 242
326 272 230 206 181 156 161 178 186 177 153 126 148 142 128 113 109 99 79 62 312 287 328 252 178 16 296 345 347 57 114 338 274 273 344 16 64 135 89 3 56 133 192 140 88 94 107 36 66 126 102 70 82 73 241 149 104 12 220 174 152 141 150 339 352 13 35 302 319 46 89 259 315 301 245 304 340 307 316 313 269 289 298 271 253 258 261 258
338 267 205 204 177 155 143 192 182 163 70 110 148 142 130 107 100 101 66 44 318 258 39 247 263 32 287 316 355 120 155 302 310 349 11 13 329 98 91 325 56 97 181 137 93 74 99 51 47 75 84 76 83 102 208 137 103 247 191 135 133 123 147 136 68 69 242 274 335 22 79 206 297 275 256 307 332 307 304 278 292 321 303 281 266 258 253 249
351 279 190 191 185 184 223 136 161 133 72 143 143 135 130 121 112 78 77 77 300 342 79 283 313 27 296 323 46 87 238 316 71 270 326 26 353 48 80 154 133 114 57 108 191 267 83 80 111 93 76 90 179 205 189 132 86 238 186 140 149 143 147 133 92 84 305 344 320 330 27 169 265 277 306 358 199 268 265 243 267 307 314 317 273 254 249 245
5 2 169 169 190 200 216 132 149 93 115 148 140 131 137 133 52 50 79 126 283 36 76 351 25 325 332 4 15 17 1 12 69 286 319 32 23 47 87 153 129 115 43 61 142 183 89 225 192 136 98 176 198 352 167 116 74 178 150 105 76 81 86 82 83 109 27 6 255 275 2 64 266 280 311 25 216 238 243 246 258 270 284 291 304 59 127 255
10 24 153 156 180 192 198 173 163 116 140 150 142 134 138 84 52 65 50 253 193 333 271 13 279 322 16 38 353 359 34 355 328 332 345 25 19 37 95 154 111 101 39 40 83 108 327 277 177 104 78 156 130 63 31 78 91 130 114 79 54 33 40 56 49 84 58 316 253 263 310 190 277 278 230 197 217 203 195 228 250 249 243 233 264 33 64 53
23 40 171 183 174 180 192 197 168 149 146 150 146 123 97 37 66 95 237 249 130 304 353 36 313 11 39 85 22 0 20 346 331 1 19 10 10 20 61 84 66 62 22 24 47 5 357 17 2 60 66 119 101 68 32 29 65 102 94 71 42 345 9 26 355 36 85 268 262 263 283 168 224 262 239 234 249 212 178 181 186 180 169 165 150 84 67 60
37 42 132 190 187 190 201 142 149 146 147 151 141 91 77 44 26 166 273 321 14 294 36 2 304 25 20 29 46 342 323 352 4 49 62 22 37 27 46 142 156 25 348 323 14 351 358 25 308 353 7 124 111 65 23 10 31 68 68 59 47 350 0 359 323 351 202 247 268 266 277 234 232 246 247 253 259 237 207 190 174 173 174 177 165 129 90 96
51 49 63 113 159 161 128 128 140 145 150 149 118 56 76 78 242 218 278 326 346 308 46 52 333 49 358 5 16 311 282 2 5 49 113 103 70 40 343 183 149 85 329 225 46 8 345 314 351 29 322 103 131 138 11 348 43 87 118 90 84 61 32 317 282 301 274 262 281 284 285 277 272 265 238 238 249 239 228 230 214 190 180 184 181 145 37 97
65 64 69 83 98 112 118 126 140 147 148 133 86 60 77 121 237 201 266 259 256 346 30 79 349 22 48 49 281 276 163 32 344 29 19 32 63 45 289 285 51 91 106 123 170 132 64 290 296 131 278 35 115 213 165 136 107 131 162 117 119 146 139 256 247 243 283 294 298 300 279 202 230 269 229 232 259 274 254 247 246 241 231 225 246 312 112 120
86 85 79 82 90 104 119 131 144 151 147 100 63 74 130 235 245 190 238 245 227 353 342 118 75 54 10 333 309 298 164 256 2 39 23 25 147 181 199 227 222 111 120 145 225 130 147 253 258 295 286 84 224 256 112 102 107 189 160 96 90 172 147 166 194 191 239 318 301 280 235 217 218 267 284 289 287 302 308 284 201 222 237 250 240 198 156 140
107 92 80 76 78 95 125 144 153 154 137 81 65 87 191 228 234 175 202 207 143 149 149 348 60 71 326 305 339 0 2 291 19 44 358 307 195 191 195 214 204 142 136 153 195 158 96 273 292 345 345 72 224 251 38 36 205 154 120 145 225 152 117 112 209 292 66 24 282 264 255 294 319 281 310 5 167 257 326 190 183 203 203 185 204 186 162 157
129 90 71 52 50 83 130 152 161 157 104 81 95 209 217 218 190 185 202 330 171 129 108 112 338 113 240 263 301 320 334 299 343 37 235 268 211 179 180 222 201 171 156 146 192 181 144 265 299 34 120 286 255 161 42 340 178 105 123 214 220 115 96 99 6 350 42 231 279 305 261 294 334 273 318 20 185 227 245 224 225 231 216 208 209 192 175 171
137 100 66 33 30 67 114 142 158 141 79 75 148 245 216 187 222 193 194 219 165 85 94 163 227 219 191 195 259 274 160 238 309 15 206 247 228 165 154 173 174 169 192 107 149 203 132 265 299 299 172 306 342 90 9 341 37 84 151 188 120 132 122 68 126 266 358 282 288 309 292 263 214 226 263 216 201 210 221 220 228 228 216 213 210 199 186 171
136 96 34 15 22 41 105 148 148 93 68 92 225 252 211 218 277 234 192 239 137 96 124 211 272 61 166 174 208 223 182 212 213 151 193 201 246 170 137 165 172 160 335 97 139 216 102 120 284 260 194 316 353 184 231 279 37 42 80 355 32 154 166 134 143 176 203 258 275 313 325 271 230 216 195 207 208 195 197 205 212 216 214 208 197 187 182 173
112 84 309 353 30 54 131 136 86 63 77 169 207 212 235 264 270 296 307 298 143 128 188 197 146 125 195 201 215 197 132 202 178 168 229 216 230 248 248 152 152 155 4 55 123 89 67 113 250 290 316 278 243 214 200 177 142 112 136 223 284 157 139 185 296 128 143 178 194 282 307 269 247 211 188 210 214 198 195 195 202 215 217 212 196 183 177 172
80 63 267 346 29 113 120 81 50 72 119 184 206 200 284 201 184 332 327 349 74 141 174 156 161 179 181 198 238 199 139 142 181 184 245 225 197 248 338 37 142 155 129 90 154 187 104 143 190 275 292 226 237 259 207 173 163 154 164 183 177 151 119 126 295 316 103 152 180 164 269 270 258 204 198 217 216 212 210 197 199 213 217 213 198 187 181 170
83 84 269 357 2 199 93 66 23 95 118 175 235 246 353 82 100 352 335 14 55 89 62 110 156 172 167 173 199 172 151 162 203 205 224 213 187 210 356 20 46 134 120 148 235 230 147 108 123 237 230 218 262 298 28 134 133 128 158 179 139 138 125 132 220 253 142 144 164 119 256 270 262 213 217 236 231 231 231 212 211 220 221 211 185 185 191 175
117 181 246 11 353 165 89 58 293 1 58 250 275 288 36 89 117 21 324 305 64 130 49 322 182 179 207 195 137 169 189 194 186 191 217 217 202 255 306 356 358 65 90 154 216 212 113 95 81 286 295 324 333 344 23 30 73 112 258 183 142 164 142 144 173 176 155 181 155 104 273 269 275 272 242 252 258 257 249 226 217 220 230 216 175 173 189 169
146 194 208 6 5 141 131 171 218 267 281 291 5 11 296 243 160 132 230 240 220 155 159 204 195 172 207 142 113 169 213 212 191 200 214 196 195 333 350 348 329 117 110 179 156 146 267 137 104 5 334 338 349 353 341 344 23 217 241 196 177 135 102 117 137 88 255 219 157 143 246 255 273 309 302 285 288 276 256 233 218 215 224 217 175 162 177 156
104 204 277 349 34 91 147 180 153 149 191 129 28 246 229 309 242 201 206 218 210 178 169 220 208 113 104 103 87 95 54 354 235 323 2 198 243 353 13 336 311 172 231 254 215 176 242 200 132 129 193 260 277 280 271 259 230 229 200 191 207 161 134 152 125 110 245 235 149 173 235 263 291 321 324 314 313 288 259 227 219 227 231 222 174 151 168 155
120 21 303 331 21 60 78 115 110 120 152 157 228 261 146 152 285 284 173 197 209 170 146 288 189 105 90 130 117 83 285 343 21 9 276 225 251 303 329 343 4 189 234 254 320 79 99 221 193 170 192 212 207 216 213 165 173 212 209 202 199 192 168 131 113 171 202 178 197 224 237 284 290 285 292 292 279 265 252 218 214 230 234 230 186 157 174 156
130 165 175 288 355 34 41 18 68 96 160 183 190 230 184 198 288 333 179 226 260 157 146 320 165 167 180 170 156 197 235 340 5 247 218 209 217 292 305 26 53 285 268 254 322 86 93 290 245 189 224 235 200 212 226 159 213 216 210 205 193 189 167 153 192 210 153 134 260 240 198 250 269 256 238 252 249 241 240 226 219 220 221 216 163 145 170 156
129 170 154 145 209 163 86 1 85 91 85 142 150 168 170 189 232 206 198 271 339 216 189 288 242 209 190 171 163 181 190 325 288 231 188 168 168 9 353 243 260 303 336 19 330 97 122 239 242 171 263 268 222 238 247 208 237 229 211 213 197 182 179 194 216 207 158 200 253 243 170 225 260 256 225 226 228 220 222 222 219 219 222 207 160 153 171 167
95 128 75 23 154 176 171 355 91 101 89 77 102 186 173 188 224 228 176 88 343 292 194 229 256 232 202 180 148 157 190 197 247 243 190 161 176 159 138 206 243 318 26 101 325 115 151 224 224 142 288 287 289 313 258 207 251 270 240 228 211 196 199 209 221 210 199 232 253 262 266 265 266 259 228 220 227 221 224 231 219 222 227 217 194 188 187 178
148 161 174 53 61 137 124 33 89 107 74 34 252 235 180 182 214 235 171 152 187 273 191 218 244 228 186 183 166 195 213 183 152 256 177 151 182 206 199 196 167 77 23 142 293 305 215 240 187 106 330 294 304 355 358 209 224 253 257 244 222 214 218 226 233 220 218 247 256 265 278 275 269 253 210 219 224 216 232 239 224 221 222 217 211 206 195 184
103 120 134 113 104 167 14 41 96 117 110 255 214 226 214 204 208 202 193 184 168 172 185 199 207 130 78 183 212 237 231 183 153 267 185 161 173 208 213 183 144 137 160 170 131 126 167 229 35 74 359 281 311 5 335 318 267 259 267 254 226 214 214 220 221 200 203 231 247 259 259 262 265 223 176 222 220 216 236 237 234 236 222 206 205 200 193 184
106 32 59 102 112 234 145 104 99 129 203 222 195 197 216 237 222 186 185 271 100 153 190 181 159 118 81 205 229 242 231 193 196 250 173 132 82 88 77 76 113 132 163 162 130 130 143 146 138 107 194 270 302 336 322 352 346 277 262 242 218 212 216 228 233 214 208 213 224 226 234 251 267 142 192 232 213 218 238 237 239 247 229 209 204 195 189 182